Flag for USA

Past Weather in Virginia Beach, Virginia, USA — Yesterday and Last 2 Weeks

Now
85 °F

Broken clouds.


Feels Like: 93 °F
Forecast: 79 / 75 °F
Wind: 14 mph from East

Location: Virginia Beach - Oceana

Current Time: Jul 9, 2020 at 11:16:49 am

Latest Report: Jul 9, 2020 at 9:56 am


Visibility: 10 mi

Pressure: 29.91 "Hg

Humidity: 72%

Dew Point: 75 °F

Location of Virginia BeachLocation

Past Weather in Virginia Beach — Graph

°F

Virginia Beach Temperature Yesterday

Maximum temperature yesterday: 86 °F (at 11:56 am)
Minimum temperature yesterday: 76 °F (at 1:56 am)
Average temperature yesterday: 81 °F

High & Low Weather Summary for the Past Weeks

 TemperatureHumidityPressure
High91 °F (Jul 3, 3:56 pm)97% (Jul 2, 3:56 am)30.09 "Hg (Jul 2, 3:56 am)
Low65 °F (Jun 26, 5:56 am)36% (Jul 3, 5:56 pm)29.75 "Hg (Jun 28, 4:56 pm)
Average79 °F73%29.92 "Hg
* Reported Jun 24 9:56 am — Jul 9 9:56 am, Virginia Beach. Weather by CustomWeather, © 2020

Note: Actual official high and low records may vary slightly from our data, if they occured in-between our weather recording intervals... More about our weather records

Virginia Beach Weather History for the Previous 24 Hours

Scroll right to see more
 ConditionsComfort  
Time TempWeatherWind HumidityBarometerVisibility
9:56 am
Thu, Jul 9
85 °FBroken clouds.14 mph72%29.91 "Hg10 mi
9:30 am84 °FBroken clouds.14 mph74%29.91 "Hg10 mi
8:56 am83 °FBroken clouds.14 mph77%29.92 "Hg10 mi
7:56 am82 °FBroken clouds.12 mph77%29.91 "Hg10 mi
7:26 am81 °FSunny.10 mph79%29.91 "Hg10 mi
7:18 am81 °FSunny.8 mph79%29.90 "Hg1 mi
6:56 am81 °FScattered clouds.8 mph79%29.90 "Hg10 mi
5:56 am79 °FScattered clouds.6 mph82%29.90 "Hg10 mi
5:14 am79 °FPartly cloudy.8 mph84%29.89 "Hg10 mi
4:56 am79 °FPassing clouds.6 mph84%29.89 "Hg10 mi
3:56 am79 °FPartly cloudy.7 mph84%29.89 "Hg10 mi
2:56 am79 °FPassing clouds.7 mph84%29.89 "Hg10 mi
1:56 am79 °FPassing clouds.8 mph84%29.89 "Hg10 mi
12:56 am80 °FPartly cloudy.8 mph79%29.90 "Hg10 mi
11:56 pm
Wed, Jul 8
79 °FClear.8 mph82%29.92 "Hg10 mi
10:56 pm79 °FPartly cloudy.7 mph82%29.93 "Hg10 mi
9:56 pm79 °FPartly cloudy.8 mph82%29.93 "Hg10 mi
8:56 pm80 °FPartly cloudy.7 mph79%29.91 "Hg10 mi
7:56 pm80 °FBroken clouds.9 mph81%29.91 "Hg10 mi
6:56 pm82 °FPartly sunny.12 mph74%29.91 "Hg10 mi
5:56 pm85 °FBroken clouds.13 mph68%29.91 "Hg10 mi
4:56 pm84 °FPassing clouds.7 mph67%29.93 "Hg10 mi
3:56 pm85 °FPartly sunny.15 mph65%29.93 "Hg10 mi
2:56 pm86 °FPartly sunny.12 mph67%29.94 "Hg10 mi
2:28 pm86 °FPartly sunny.16 mph67%29.93 "Hg10 mi
1:56 pm85 °FPartly sunny.14 mph70%29.97 "Hg10 mi
12:56 pm85 °FPartly sunny.10 mph70%29.98 "Hg10 mi
11:56 am86 °FPartly sunny.10 mph70%30.00 "Hg10 mi
Weather by CustomWeather, © 2020

See weather overview